Home > Weather > Palermo > Past weeks

Flag for Italy Past Weather in Palermo, Italy — Yesterday and Last 2 Weeks

Now
81 °F

Sunny.


Feels Like: 85 °F
Forecast: 74 / 89 °F
Wind: 9 mph from Northwest

Location: Palermo / Punta Raisi

Current Time: Jun 30, 2016 at 4:10:45 PM

Latest Report: Jun 30, 2016 at 3:20 PM


Visibility: 10 mi

Pressure: 30.04 "Hg

Humidity: 74%

Dew Point: 72 °F

Location of PalermoLocation

Past Weather in Palermo — Graph

°F

Palermo Temperature Yesterday

Maximum temperature yesterday: 79 °F (at 3:50 PM)
Minimum temperature yesterday: 68 °F (at 6:20 AM)
Average temperature yesterday: 75 °F

High & Low Weather Summary for the Past Weeks

 TemperatureHumidityPressure
High106 °F (Jun 16, 11:50 AM)94% (Jun 24, 11:50 PM)30.18 "Hg (Jun 24, 11:50 PM)
Low64 °F (Jun 20, 3:20 AM)9% (Jun 16, 4:50 PM)29.59 "Hg (Jun 16, 5:20 AM)
Average75 °F69%30.01 "Hg
* Reported Jun 15 2:20 PM — Jun 30 2:50 PM, Palermo, Weather by CustomWeather, © 2016

Note: Actual official high and low records may vary slightly from our data, if they occured in-between our weather recording intervals... More about our weather records

Advertising

Palermo Weather History for the Previous 24 Hours

Scroll right to see more
 ConditionsComfort  
Time TempWeatherWind HumidityBarometerVisibility
2:50 PM
Thu, Jun 30
81 °FSunny.12 mph70%30.07 "Hg10 mi
2:20 PM81 °FSunny.7 mph74%30.07 "Hg10 mi
1:50 PM82 °FSunny.7 mph66%30.07 "Hg10 mi
1:20 PM81 °FSunny.12 mph70%30.04 "Hg10 mi
12:50 PM81 °FSunny.9 mph70%30.04 "Hg10 mi
12:20 PM79 °FSunny.10 mph74%30.04 "Hg10 mi
11:50 AM79 °FSunny.8 mph70%30.04 "Hg10 mi
11:20 AM79 °FSunny.9 mph70%30.04 "Hg10 mi
10:50 AM77 °FSunny.7 mph74%30.04 "Hg10 mi
10:20 AM77 °FSunny.8 mph69%30.04 "Hg10 mi
9:50 AM77 °FSunny.18 mph69%30.01 "Hg10 mi
9:20 AM81 °FPassing clouds.14 mph51%30.01 "HgN/A
8:50 AM75 °FDrizzle. Partly sunny.7 mph69%30.04 "HgN/A
8:20 AM75 °FPartly sunny.7 mph69%30.07 "HgN/A
7:50 AM75 °FPassing clouds.3 mph74%30.07 "HgN/A
7:20 AM75 °FPassing clouds.5 mph74%30.04 "HgN/A
6:50 AM75 °FSunny.7 mph78%30.04 "Hg10 mi
6:20 AM70 °FPassing clouds.3 mph78%29.98 "HgN/A
5:50 AM73 °FClear.3 mph74%30.01 "Hg10 mi
5:20 AM73 °FClear.8 mph74%30.01 "Hg10 mi
4:50 AM72 °FClear.2 mph73%29.98 "Hg10 mi
4:20 AM72 °FClear.2 mph73%30.01 "Hg10 mi
3:50 AM72 °FClear.5 mph78%30.01 "Hg10 mi
3:20 AM72 °FClear.3 mph78%30.01 "Hg10 mi
2:50 AM72 °FClear.5 mph83%30.04 "Hg10 mi
2:20 AM73 °FClear.2 mph78%30.01 "Hg10 mi
1:50 AM73 °FClear.2 mph83%30.01 "Hg10 mi
1:20 AM73 °FClear.2 mph83%30.01 "Hg10 mi
12:50 AM73 °FClear.3 mph83%30.01 "Hg10 mi
12:20 AM75 °FClear.2 mph78%30.01 "Hg10 mi
11:50 PM
Wed, Jun 29
75 °FClear.2 mph74%30.01 "Hg10 mi
11:20 PM73 °FClear.5 mph78%30.01 "Hg10 mi
10:50 PM73 °FClear.3 mph83%30.01 "Hg10 mi
10:20 PM75 °FClear.5 mph78%30.04 "Hg10 mi
9:50 PM75 °FClear.9 mph78%30.01 "Hg10 mi
9:20 PM75 °FSunny.9 mph78%30.01 "Hg10 mi
8:50 PM77 °FPassing clouds.5 mph74%30.01 "HgN/A
8:20 PM77 °FPassing clouds.7 mph74%30.01 "HgN/A
7:50 PM79 °FSunny.13 mph65%30.01 "Hg10 mi
7:20 PM79 °FSunny.17 mph65%30.01 "Hg10 mi
6:50 PM79 °FSunny.17 mph65%29.98 "Hg10 mi
6:20 PM79 °FSunny.18 mph70%29.98 "Hg10 mi
5:50 PM79 °FSunny.22 mph65%29.98 "Hg10 mi
5:20 PM79 °FSunny.22 mph65%30.01 "Hg10 mi
4:50 PM79 °FSunny.22 mph65%30.01 "Hg10 mi
4:20 PM79 °FSunny.22 mph65%30.01 "Hg10 mi
Weather by CustomWeather, © 2016

See weather overviewHow to use our weather pages